Manitowish Waters, WI

8:39 PM CST on February 23, 2017 (GMT -0600)
Manitowish Waters, Manitowish

Weather History for KD25 - February, 2014

Change the Weather History Date:

Friday, February 28, 2014

  Actual Average (KARV) Record (KARV)
Temperature  
Mean Temperature -11 °F -  
Max Temperature 6 °F 31 °F 50 °F (2004)
Min Temperature -28 °F 7 °F -22 °F (1963)
Degree Days  
Heating Degree Days 76    
Moisture  
Dew Point -14 °F    
Average Humidity 67    
Maximum Humidity 83    
Minimum Humidity 41    
Precipitation  
Precipitation 0.00 in - - ()
Sea Level Pressure  
Sea Level Pressure 29.91 in    
Wind  
Wind Speed 4 mph (SSW)    
Max Wind Speed 15 mph    
Max Gust Speed 21 mph    
Visibility 9 miles    
Events Snow    
Averages and records for this station are not official NWS values.
T = Trace of Precipitation, MM = Missing Value Source: NWS Daily Summary

Daily Weather History Graph

Daily Weather History Graph

Search for Another Location

Airport or City:

Trip Planner

Search our weather history database for the weather conditions in past years. The results will help you decide how hot, cold, wet, or windy it might be!

Date:

Astronomy

Feb. 28, 2014 Rise Set
Actual Time 6:40 AM CST 5:44 PM CST
Civil Twilight 6:10 AM CST 6:14 PM CST
Nautical Twilight 5:35 AM CST 6:49 PM CST
Astronomical Twilight 5:00 AM CST 7:24 PM CST
Moon 5:55 AM CST (2/28) 5:22 PM CST (2/28)
Length of Visible Light 12h 04m
Length of Day
11h 04m
Waning Crescent, 1% of the Moon is Illuminated
Feb 28
Waning Crescent
Mar 1
New
Mar 8
First Quarter
Mar 16
Full
Mar 23
Last Quarter

Hourly Weather History & Observations

Time (CST) Temp. Windchill Dew Point Humidity Pressure Visibility Wind Dir Wind Speed Gust Speed Precip Events Conditions
12:15 AM -27.6 °F - -34.1 °F 71% 30.01 in 10.0 mi Calm Calm - N/A   Clear
12:35 AM -28.5 °F - -34.8 °F 72% 30.01 in 10.0 mi Calm Calm - N/A   Clear
12:55 AM -27.2 °F - -33.5 °F 72% 30.01 in 10.0 mi Calm Calm - N/A   Clear
1:15 AM -26.7 °F - -33.0 °F 72% 30.00 in 10.0 mi Calm Calm - N/A   Clear
1:35 AM -25.2 °F - -31.4 °F 73% 29.99 in 10.0 mi Calm Calm - N/A   Clear
1:55 AM -24.7 °F - -31.0 °F 72% 29.99 in 10.0 mi Calm Calm - N/A   Clear
2:15 AM -26.3 °F - -32.4 °F 73% 29.99 in 10.0 mi Calm Calm - N/A   Clear
2:35 AM -26.5 °F - -32.6 °F 73% 29.98 in 10.0 mi Calm Calm - N/A   Clear
2:55 AM -27.8 °F - -34.2 °F 71% 29.97 in 10.0 mi Calm Calm - N/A   Clear
3:15 AM -27.2 °F - -33.2 °F 73% 29.97 in 10.0 mi Calm Calm - N/A   Clear
3:35 AM -28.1 °F - -34.2 °F 73% 29.97 in 10.0 mi Calm Calm - N/A   Clear
3:55 AM -28.1 °F - -34.6 °F 71% 29.96 in 10.0 mi Calm Calm - N/A   Scattered Clouds
4:15 AM -27.4 °F - -33.9 °F 71% 29.96 in 10.0 mi Calm Calm - N/A   Scattered Clouds
4:35 AM -27.6 °F - -33.9 °F 72% 29.96 in 10.0 mi Calm Calm - N/A   Scattered Clouds
4:55 AM -25.4 °F - -31.4 °F 74% 29.97 in 10.0 mi Calm Calm - N/A   Mostly Cloudy
5:15 AM -24.9 °F - -31.2 °F 72% 29.96 in 10.0 mi Calm Calm - N/A   Overcast
5:35 AM -20.9 °F -34.3 °F -27.8 °F 71% 29.96 in 10.0 mi SSE 4.6 mph - N/A   Overcast
5:55 AM -15.5 °F -28.0 °F -23.8 °F 66% 29.96 in 10.0 mi SSE 4.6 mph - N/A   Overcast
6:15 AM -13.9 °F -29.7 °F -22.4 °F 66% 29.95 in 10.0 mi SSE 6.9 mph - N/A   Overcast
6:35 AM -12.5 °F -26.3 °F -22.0 °F 63% 29.95 in 10.0 mi SSE 5.8 mph - N/A   Overcast
6:55 AM -11.6 °F -25.3 °F -22.2 °F 59% 29.96 in 10.0 mi SSE 5.8 mph - N/A   Overcast
7:15 AM -11.0 °F -22.8 °F -22.0 °F 58% 29.95 in 10.0 mi SSE 4.6 mph - N/A   Overcast
7:35 AM -9.9 °F -23.4 °F -21.3 °F 57% 29.95 in 10.0 mi South 5.8 mph - N/A   Overcast
7:55 AM -8.7 °F -21.9 °F -20.4 °F 57% 29.96 in 10.0 mi South 5.8 mph - N/A   Overcast
8:15 AM -7.6 °F -22.1 °F -20.0 °F 55% 29.95 in 10.0 mi South 6.9 mph - N/A   Overcast
8:35 AM -6.2 °F -24.8 °F -19.7 °F 52% 29.95 in 10.0 mi South 11.5 mph - N/A   Mostly Cloudy
8:55 AM -5.1 °F -22.5 °F -19.5 °F 50% 29.93 in 10.0 mi South 10.4 mph 17.3 mph N/A   Scattered Clouds
9:15 AM -3.5 °F -19.5 °F -18.0 °F 50% 29.94 in 10.0 mi South 9.2 mph - N/A   Scattered Clouds
9:35 AM -2.7 °F -20.5 °F -17.5 °F 49% 29.94 in 10.0 mi South 11.5 mph 19.6 mph N/A   Scattered Clouds
9:55 AM -1.5 °F -21.3 °F -16.4 °F 49% 29.92 in 10.0 mi South 15.0 mph 19.6 mph N/A   Mostly Cloudy
10:15 AM -0.6 °F -16.9 °F -15.7 °F 49% 29.93 in 10.0 mi SSW 10.4 mph 19.6 mph N/A   Overcast
10:35 AM 0.1 °F -16.0 °F -15.9 °F 47% 29.91 in 10.0 mi South 10.4 mph 16.1 mph N/A   Overcast
10:55 AM 1.2 °F -14.7 °F -15.7 °F 45% 29.91 in 10.0 mi SSW 10.4 mph - N/A   Overcast
11:15 AM 1.9 °F -13.8 °F -15.9 °F 43% 29.90 in 10.0 mi South 10.4 mph - N/A   Overcast
11:35 AM 3.2 °F -13.1 °F -15.5 °F 42% 29.89 in 10.0 mi South 11.5 mph - N/A   Overcast
11:50 AM 3.6 °F -11.8 °F -15.0 °F 42% 29.89 in 10.0 mi South 10.4 mph - N/A   Overcast
12:15 PM 3.0 °F -12.5 °F -8.0 °F 60% 29.88 in 2.5 mi South 10.4 mph 20.7 mph N/A   Haze
12:35 PM 3.2 °F -13.1 °F -6.9 °F 63% 29.87 in 3.0 mi South 11.5 mph 18.4 mph N/A Snow Light Snow
12:55 PM 4.1 °F -10.2 °F -7.1 °F 60% 29.86 in 10.0 mi South 9.2 mph - N/A   Overcast
1:15 PM 5.0 °F -11.6 °F -12.8 °F 44% 29.84 in 10.0 mi South 12.7 mph 17.3 mph N/A   Overcast
1:35 PM 6.4 °F -8.2 °F -13.0 °F 41% 29.82 in 10.0 mi SSE 10.4 mph 16.1 mph N/A   Overcast
1:55 PM 5.9 °F -9.7 °F -6.3 °F 57% 29.82 in 4.0 mi SSE 11.5 mph - N/A   Haze
2:15 PM 5.4 °F -9.6 °F -2.6 °F 70% 29.82 in 2.5 mi South 10.4 mph - N/A Snow Light Snow
2:35 PM 5.5 °F -10.2 °F -1.5 °F 73% 29.82 in 3.0 mi SSW 11.5 mph 17.3 mph N/A Snow Light Snow
2:55 PM 5.5 °F -9.3 °F -1.1 °F 74% 29.82 in 4.0 mi South 10.4 mph - N/A Snow Light Snow
3:15 PM 5.7 °F -9.1 °F -0.9 °F 74% 29.81 in 5.0 mi South 10.4 mph - N/A Snow Light Snow
3:35 PM 6.3 °F -9.2 °F -0.6 °F 73% 29.82 in 7.0 mi South 11.5 mph 17.3 mph N/A Snow Light Snow
3:55 PM 6.4 °F -8.2 °F -0.4 °F 74% 29.82 in 7.0 mi South 10.4 mph 17.3 mph N/A Snow Light Snow
4:15 PM 6.6 °F -8.0 °F -0.0 °F 74% 29.82 in 5.0 mi South 10.4 mph - N/A Snow Light Snow
4:35 PM 6.4 °F -8.2 °F 0.5 °F 77% 29.82 in 4.0 mi SSW 10.4 mph - N/A Snow Light Snow
4:55 PM 6.4 °F -7.3 °F 0.9 °F 78% 29.83 in 2.5 mi SSW 9.2 mph - N/A Snow Light Snow
5:15 PM 6.6 °F -8.8 °F -0.0 °F 74% 29.83 in 4.0 mi SW 11.5 mph 18.4 mph N/A Snow Light Snow
5:35 PM 6.3 °F -5.4 °F -0.4 °F 74% 29.84 in 7.0 mi SW 6.9 mph - N/A Snow Light Snow
5:55 PM 5.9 °F -5.8 °F -0.6 °F 75% 29.84 in 10.0 mi SW 6.9 mph - N/A   Overcast
6:15 PM 5.5 °F -7.4 °F -1.3 °F 73% 29.86 in 10.0 mi WSW 8.1 mph - N/A   Overcast
6:30 PM 5.5 °F -5.0 °F -1.3 °F 73% 29.86 in 10.0 mi WSW 5.8 mph - N/A   Overcast
6:55 PM 5.0 °F -6.9 °F -0.9 °F 76% 29.87 in 7.0 mi SW 6.9 mph - N/A   Overcast
7:15 PM 5.0 °F -4.1 °F -0.6 °F 78% 29.87 in 10.0 mi WSW 4.6 mph - N/A   Overcast
7:35 PM 4.8 °F -5.8 °F -0.8 °F 78% 29.88 in 10.0 mi SW 5.8 mph - N/A   Overcast
7:55 PM 4.6 °F -6.0 °F -0.9 °F 78% 29.88 in 10.0 mi WSW 5.8 mph - N/A   Overcast
8:15 PM 4.1 °F -5.1 °F -1.7 °F 77% 29.89 in 10.0 mi WSW 4.6 mph - N/A   Overcast
8:35 PM 3.7 °F -8.4 °F -2.2 °F 76% 29.90 in 10.0 mi West 6.9 mph - N/A   Mostly Cloudy
8:55 PM 3.0 °F -4.4 °F -2.4 °F 78% 29.91 in 10.0 mi West 3.5 mph - N/A   Scattered Clouds
9:15 PM 2.3 °F -7.2 °F -2.6 °F 80% 29.91 in 10.0 mi WSW 4.6 mph - N/A   Scattered Clouds
9:35 PM 1.9 °F - -2.7 °F 81% 29.91 in 3.0 mi Calm Calm - N/A Snow Light Snow
9:55 PM 1.4 °F -6.2 °F -2.7 °F 83% 29.91 in 10.0 mi West 3.5 mph - N/A   Clear
10:15 PM 1.6 °F -6.0 °F -2.9 °F 81% 29.92 in 10.0 mi WSW 3.5 mph - N/A   Scattered Clouds
10:35 PM 1.8 °F -7.8 °F -2.6 °F 82% 29.93 in 10.0 mi West 4.6 mph - N/A   Scattered Clouds
10:55 PM 1.4 °F -8.3 °F -3.1 °F 81% 29.93 in 10.0 mi WNW 4.6 mph - N/A   Scattered Clouds
11:15 PM 1.8 °F -9.5 °F -3.3 °F 79% 29.95 in 10.0 mi WNW 5.8 mph - N/A   Scattered Clouds
11:35 PM 1.4 °F -11.3 °F -4.4 °F 77% 29.95 in 10.0 mi NW 6.9 mph - N/A   Scattered Clouds
11:55 PM 1.0 °F -11.7 °F -4.9 °F 76% 29.97 in 10.0 mi NW 6.9 mph - N/A   Clear